2018-107A (43867 NORAD) Tracking and Keplerian Element Data

This shows tracking and keplerian element data for the satellite.

Feedback or suggestion? Click here.




ElementValue
Catalog43867
Name2018-107A
Epoch Orbit27
Epoch Day16.63510334
Epoch Year2019
RAAN276.2688
Inclination0.1339
Eccentricity0.0004249
Argument of Perigee285.3503
Mean Anonmoly223.2652
Mean Motion1.00198716
Decay Rate-1.13E-06
L11 43867U 18107A 19016.63510334 -.00000113 00000-0 00000+0 0 9992
L22 43867 0.1339 276.2688 0004249 285.3503 223.2652 1.00198716 274

Live tracking and technical data element details for 2018-107A (NORAD 43867). 2018-107A can be tracked NOW for your location showing map with azimuth and elevation plus other details from your city location.

Track the satellite on the map from your city or location and see movement details for azimuth, elevation, latitude, longitude, range, height, and movement on the map or in text.







IsCatalogInMostPopularTable: catalog: 43867, numindb: 14
Update: records affected: 1



GetName: 43867 2018-107A

Hit Count: updated at: Thu, 17 Jan 2019 15:54:50 GMT